This is the latest recevied weather packets stored in our database for station/object KM6YFK-13. If no packets are shown the sender has not sent any weather packets the latest 10 day(s).
| Time | Temp. | Humidity | Pressure | Rain* | Wind** | Luminosity | Snow |
|---|---|---|---|---|---|---|---|
| 1777235008 | 26.11° C | 66% | 1010.5 hPa | 0 mm | - | 534 W/m² | - |
| 1777234707 | 26.11° C | 66% | 1010.5 hPa | 0 mm | - | 716 W/m² | - |
| 1777234407 | 26.11° C | 68% | 1010.5 hPa | 0 mm | - | 624 W/m² | - |
| 1777234108 | 25.56° C | 69% | 1010.5 hPa | 0 mm | - | 723 W/m² | - |
| 1777233808 | 25.56° C | 70% | 1010.6 hPa | 0 mm | - | 750 W/m² | - |
| 1777233508 | 25.56° C | 69% | 1010.7 hPa | 0 mm | - | 798 W/m² | - |
| 1777233208 | 25° C | 71% | 1010.7 hPa | 0 mm | - | 895 W/m² | - |
| 1777232907 | 25° C | 73% | 1010.6 hPa | 0 mm | - | 889 W/m² | - |
| 1777232607 | 25° C | 74% | 1010.7 hPa | 0 mm | - | 358 W/m² | - |
| 1777232308 | 25.56° C | 73% | 1010.7 hPa | 0 mm | - | 238 W/m² | - |
| 1777232008 | 25.56° C | 69% | 1010.8 hPa | 0 mm | - | 865 W/m² | - |
| 1777231707 | 25.56° C | 72% | 1010.8 hPa | 0 mm | - | 844 W/m² | - |
| 1777231408 | 25° C | 74% | 1010.7 hPa | 0 mm | - | 869 W/m² | - |
| 1777231108 | 24.44° C | 75% | 1010.8 hPa | 0 mm | - | 801 W/m² | - |
| 1777230807 | 24.44° C | 75% | 1010.9 hPa | 0 mm | - | 670 W/m² | - |
| 1777230508 | 24.44° C | 73% | 1011 hPa | 0 mm | - | 685 W/m² | - |
| 1777230208 | 24.44° C | 73% | 1011.1 hPa | 0 mm | - | 970 W/m² | - |
| 1777229908 | 23.89° C | 77% | 1011.1 hPa | 0 mm | - | 1131 W/m² | - |
| 1777229608 | 23.33° C | 78% | 1011.1 hPa | 0 mm | - | 404 W/m² | - |
| 1777229308 | 23.33° C | 81% | 1011.1 hPa | 0 mm | - | 470 W/m² | - |
| 1777229007 | 23.33° C | 82% | 1011.2 hPa | 0 mm | - | 436 W/m² | - |
| 1777228708 | 22.78° C | 84% | 1011.3 hPa | 0 mm | - | 411 W/m² | - |
| 1777228408 | 22.78° C | 84% | 1011.3 hPa | 0 mm | - | 463 W/m² | - |
| 1777228108 | 23.33° C | 84% | 1011.4 hPa | 0 mm | - | 431 W/m² | - |
| 1777227808 | 22.78° C | 85% | 1011.5 hPa | 0 mm | - | 455 W/m² | - |
* Rain latest hour (hover to see other rain measurements)
** Current wind speed in m/s (hover to see current wind gust speed)